[[{"header":{"parameterUnit":"m.s-1","parameterCategory":1,"la1":30.2991,"la2":30.254,"lo1":-89.0895,"lo2":-89.0444,"dy":0.0017,"dx":0.0017,"nx":28,"ny":28,"refTime":"2025-09-06T09:00:00:Z","depth":0,"parameterNumber":2,"parameterNumberName":"U-component_of_WINDS"},"data":[0,0,0,0,0,0,0,0,0,0,0,0,0,0,0,0,0,0,0,0,0,0,0,0,0,0,0,0,0,0,0,0,0,0,0,0,0,0,0,0,0,0,0,0,0,0,0,0,0,0,0,0,0,0,0,0,0,0,-1.4616,-1.4616,0,-1.4639,-1.464,-1.464,-1.4606,-1.4605,-1.4604,-1.4603,-1.4627,-1.4628,-1.463,0,0,0,0,0,0,0,0,0,0,0,0,0,-1.4541,-1.4542,-1.4616,-1.4616,-1.4616,-1.4639,-1.464,-1.464,-1.4606,-1.4605,-1.4603,-1.4602,-1.4626,-1.4628,-1.463,0,0,0,0,0,0,0,0,0,0,0,0,0,-1.457,-1.4543,-1.4616,-1.4602,-1.4601,-1.4639,-1.464,-1.464,-1.4607,-1.4605,-1.4603,-1.4601,-1.4625,-1.4628,-1.4631,-1.4683,0,0,-1.4639,-1.464,0,0,0,0,0,0,0,0,-1.4568,-1.4573,-1.4604,-1.4603,-1.4602,-1.4618,-1.4622,-1.4654,-1.4607,-1.4605,-1.4603,-1.4601,-1.4625,-1.4628,-1.4636,-1.4684,-1.4685,-1.4639,-1.464,-1.4642,-1.4642,0,0,0,0,0,0,0,-1.4566,-1.4571,-1.4625,-1.4605,-1.4604,-1.4595,-1.4597,-1.4628,-1.4625,-1.4605,-1.4602,-1.4606,-1.4624,-1.4634,-1.4636,-1.4685,-1.4639,-1.4641,-1.4643,-1.4644,-1.4776,-1.4777,0,0,0,0,0,0,-1.4566,-1.457,-1.4624,-1.4626,-1.4581,-1.4598,-1.46,-1.4615,-1.4624,-1.4624,-1.4607,-1.4604,-1.463,-1.4633,-1.4637,-1.4699,-1.4642,-1.4644,-1.4645,-1.4774,-1.4776,-1.4778,0,0,0,0,0,0,-1.4565,-1.4571,-1.4623,-1.4597,-1.4603,-1.4601,-1.4618,-1.4616,-1.4625,-1.4626,-1.4625,-1.4617,-1.4629,-1.4633,-1.4671,-1.4699,-1.4645,-1.4648,-1.4771,-1.4774,-1.4777,-1.4822,0,0,0,0,0,0,-1.4563,-1.4571,-1.4591,-1.4598,-1.4605,-1.4658,-1.4619,-1.4618,-1.463,-1.4626,-1.4635,-1.4635,-1.4628,-1.4668,-1.4674,-1.4702,-1.465,-1.4769,-1.4773,-1.4776,-1.4818,-1.4826,-1.4833,0,0,0,0,0,-1.456,-1.4603,-1.4592,-1.4599,-1.463,-1.4659,-1.4663,-1.4654,-1.4632,-1.4652,-1.4653,-1.4635,-1.4695,-1.4672,-1.4679,-1.4707,-1.4767,-1.4772,-1.4776,-1.4815,-1.4824,-1.4833,0,0,0,0,0,0,-1.4599,-1.4603,-1.4592,-1.4638,-1.4649,-1.4654,-1.4679,-1.4665,-1.4682,-1.4677,-1.4665,-1.4667,-1.4708,-1.4711,-1.4686,-1.4758,-1.4727,-1.4733,-1.4754,-1.4764,-1.4771,-1.477,-1.4652,0,0,0,0,0,-1.4613,-1.4637,-1.4639,-1.468,-1.4686,-1.4681,-1.4694,-1.4686,-1.4696,-1.47,-1.4703,-1.4714,-1.4735,-1.4749,-1.4769,-1.4818,-1.4819,-1.4841,-1.4848,-1.4854,-1.486,-1.4886,-1.4895,-1.4792,-1.4792,-1.4792,0,0,-1.4643,-1.4648,-1.4664,-1.4688,-1.4695,-1.472,-1.4685,-1.4713,-1.4731,-1.4705,-1.4741,-1.4743,-1.4754,-1.4798,-1.4817,-1.4802,-1.4888,-1.486,-1.4865,-1.4867,-1.4891,-1.4901,-1.491,-1.4795,-1.4795,-1.4794,0,0,-1.4709,-1.4715,-1.475,-1.4757,-1.4769,-1.4765,-1.4773,-1.478,-1.4781,-1.4817,-1.4797,-1.4818,-1.4855,-1.4863,-1.4872,-1.494,-1.4925,-1.4947,-1.4986,-1.5011,-1.5019,-1.5027,-1.5051,-1.506,-1.4952,-1.4952,-1.4952,0,-1.4744,-1.4781,-1.4769,-1.4798,-1.4809,-1.4786,-1.482,-1.4828,-1.4845,-1.4853,-1.4836,-1.4881,-1.4886,-1.4932,-1.4948,-1.4956,-1.4965,-1.4946,-1.5019,-1.5026,-1.5033,-1.5056,-1.5065,-1.4955,-1.4955,-1.4954,-1.4954,0,-1.4824,-1.4849,-1.4876,-1.4893,-1.4906,-1.4938,-1.4931,-1.4946,-1.4936,-1.4935,-1.4971,-1.4977,-1.4997,-1.5006,-1.4997,-1.505,-1.504,-1.5021,-1.4991,-1.5045,-1.5067,-1.5076,-1.4959,-1.4958,-1.4957,-1.4956,0,0,-1.4917,-1.4926,-1.4936,-1.4943,-1.4953,-1.4973,-1.5003,-1.5022,-1.5035,-1.5047,-1.5072,-1.5103,-1.5085,-1.5096,-1.5087,-1.5109,-1.5162,-1.5087,-1.5087,-1.5101,-1.5221,-1.5236,-1.5247,-1.5151,-1.5153,-1.5154,-1.522,0,-1.4984,-1.5036,-1.5026,-1.5077,-1.5101,-1.5077,-1.5104,-1.5112,-1.5111,-1.513,-1.5128,-1.5151,-1.5125,-1.5131,-1.5152,-1.5152,-1.5186,-1.5146,-1.5175,-1.5176,-1.5174,-1.5258,-1.5274,-1.5336,-1.5229,-1.523,-1.5231,0,-1.5069,-1.5084,-1.5138,-1.5143,-1.5152,-1.5176,-1.5193,-1.5211,-1.522,-1.5218,-1.5229,-1.5215,-1.5245,-1.5213,-1.5253,-1.5226,-1.5236,-1.5238,-1.524,-1.5243,-1.5208,-1.5264,-1.5356,-1.5366,-1.5244,-1.5243,-1.5242,0,-1.5133,-1.5166,-1.5202,-1.5209,-1.5216,-1.5233,-1.5237,-1.5244,-1.5256,-1.527,-1.5278,-1.5295,-1.5305,-1.5318,-1.531,-1.5287,-1.5351,-1.5318,-1.535,-1.535,-1.5366,-1.5365,-1.5462,-1.5371,-1.5371,-1.5371,-1.5371,0,-1.5209,-1.5243,-1.5231,-1.5253,-1.529,-1.5277,-1.5314,-1.5315,-1.5321,-1.5343,-1.5323,-1.5344,-1.5331,-1.5351,-1.5344,-1.5379,-1.5383,-1.5382,-1.538,-1.5384,-1.5384,-1.5392,-1.5388,-1.5373,-1.5373,-1.5372,-1.5372,0,-1.5287,-1.528,-1.5318,-1.5321,-1.5323,-1.535,-1.5352,-1.5373,-1.5369,-1.5397,-1.5403,-1.5398,-1.542,-1.5412,-1.5436,-1.5431,-1.5475,-1.5467,-1.5472,-1.5471,-1.5503,-1.55,-1.5608,-1.5622,-1.5522,-1.5523,-1.5524,0,-1.5336,-1.5362,-1.5367,-1.538,-1.5385,-1.5407,-1.5419,-1.5407,-1.542,-1.5431,-1.545,-1.5471,-1.5486,-1.5522,-1.5521,-1.5538,-1.5531,-1.5568,-1.5534,-1.5537,-1.5532,-1.5531,-1.5534,-1.5575,-1.5576,-1.5577,-1.5578,0,-1.5425,-1.542,-1.5438,-1.5455,-1.547,-1.5482,-1.5493,-1.5505,-1.5493,-1.5509,-1.5531,-1.5543,-1.5567,-1.5587,-1.5603,-1.5606,-1.559,-1.5588,-1.5596,-1.5602,-1.5604,-1.5604,-1.5492,-1.5586,-1.5585,-1.5585,-1.5584,-1.5584,-1.5491,-1.5512,-1.5519,-1.554,-1.5546,-1.5557,-1.5576,-1.5575,-1.5593,-1.5612,-1.5603,-1.5628,-1.5635,-1.5655,-1.566,-1.568,-1.5666,-1.5678,-1.5681,-1.5685,-1.5689,-1.56,-1.5683,-1.5682,-1.5682,-1.5682,-1.5682,0,-1.5579,-1.5582,-1.5601,-1.5617,-1.5633,-1.5615,-1.5626,-1.5641,-1.5664,-1.5671,-1.5687,-1.5712,-1.5731,-1.573,-1.5748,-1.5764,-1.5757,-1.5769,-1.5768,-1.577,-1.57,-1.5692,-1.5775,-1.5774,-1.5774,-1.5774,-1.5774,-1.5774,-1.5627,-1.5662,-1.5658,-1.5696,-1.5699,-1.5724,-1.5731,-1.5741,-1.5747,-1.5776,-1.5792,-1.5791,-1.5795,-1.5813,-1.5829,-1.5828,-1.5836,-1.5851,-1.5848,-1.5784,-1.5774,-1.5766,-1.5757,-1.5853,-1.5853,-1.5915,-1.5916,-1.5916]},{"header":{"parameterUnit":"m.s-1","parameterCategory":1,"la1":30.2991,"la2":30.254,"lo1":-89.0895,"lo2":-89.0444,"dy":0.0017,"dx":0.0017,"nx":28,"ny":28,"refTime":"2025-09-06T09:00:00:Z","depth":0,"parameterNumber":3,"parameterNumberName":"V-component_of_WINDS"},"data":[0,0,0,0,0,0,0,0,0,0,0,0,0,0,0,0,0,0,0,0,0,0,0,0,0,0,0,0,0,0,0,0,0,0,0,0,0,0,0,0,0,0,0,0,0,0,0,0,0,0,0,0,0,0,0,0,0,0,-5.7567,-5.7567,0,-5.7617,-5.7618,-5.7618,-5.7571,-5.7569,-5.7567,-5.7566,-5.7613,-5.7615,-5.7618,0,0,0,0,0,0,0,0,0,0,0,0,0,-5.7424,-5.7427,-5.7567,-5.7567,-5.7568,-5.7617,-5.7618,-5.7619,-5.7572,-5.7569,-5.7567,-5.7565,-5.7612,-5.7615,-5.7619,0,0,0,0,0,0,0,0,0,0,0,0,0,-5.7482,-5.7428,-5.7566,-5.755,-5.755,-5.7617,-5.7618,-5.7619,-5.7572,-5.7569,-5.7566,-5.7564,-5.761,-5.7615,-5.7619,-5.7703,0,0,-5.7633,-5.7635,0,0,0,0,0,0,0,0,-5.7478,-5.7487,-5.7552,-5.7552,-5.7551,-5.7585,-5.7585,-5.7647,-5.7573,-5.7563,-5.7566,-5.7562,-5.7605,-5.761,-5.7626,-5.7706,-5.7708,-5.7633,-5.7636,-5.7638,-5.7639,0,0,0,0,0,0,0,-5.7475,-5.7484,-5.7586,-5.7553,-5.7552,-5.7539,-5.7544,-5.7596,-5.7599,-5.7564,-5.7561,-5.7568,-5.7604,-5.7621,-5.7626,-5.7708,-5.7633,-5.7637,-5.764,-5.7642,-5.786,-5.7863,0,0,0,0,0,0,-5.7473,-5.7481,-5.7585,-5.7588,-5.7507,-5.7544,-5.755,-5.7577,-5.7599,-5.7599,-5.757,-5.7565,-5.7615,-5.7621,-5.7628,-5.7728,-5.7638,-5.7642,-5.7645,-5.7857,-5.7861,-5.7864,0,0,0,0,0,0,-5.747,-5.7483,-5.7583,-5.7534,-5.7546,-5.755,-5.758,-5.7579,-5.7596,-5.7603,-5.7603,-5.7587,-5.7613,-5.7621,-5.7685,-5.7729,-5.7644,-5.7648,-5.7854,-5.7858,-5.7863,-5.793,0,0,0,0,0,0,-5.7466,-5.7482,-5.7515,-5.7535,-5.7549,-5.7641,-5.7583,-5.7582,-5.7605,-5.7599,-5.7619,-5.762,-5.7612,-5.7679,-5.769,-5.7734,-5.7652,-5.785,-5.7856,-5.7861,-5.7923,-5.7936,-5.7947,0,0,0,0,0,-5.7461,-5.7531,-5.7517,-5.753,-5.759,-5.7644,-5.7651,-5.7642,-5.7609,-5.7641,-5.7646,-5.7619,-5.7723,-5.7686,-5.7698,-5.7744,-5.7847,-5.7854,-5.7861,-5.7918,-5.7933,-5.7946,0,0,0,0,0,0,-5.7513,-5.7533,-5.7518,-5.7596,-5.7619,-5.7636,-5.7676,-5.7658,-5.7689,-5.7682,-5.7667,-5.7672,-5.774,-5.7748,-5.7707,-5.7827,-5.7779,-5.7789,-5.7819,-5.7833,-5.7845,-5.7841,-5.7656,0,0,0,0,0,-5.7534,-5.7578,-5.7592,-5.7659,-5.7672,-5.7672,-5.7695,-5.7686,-5.7708,-5.7717,-5.7726,-5.7748,-5.7785,-5.7809,-5.7844,-5.7925,-5.7928,-5.7962,-5.7974,-5.7983,-5.7991,-5.8035,-5.805,-5.7887,-5.7887,-5.7887,0,0,-5.7577,-5.7593,-5.7621,-5.767,-5.7687,-5.7731,-5.7681,-5.7729,-5.7761,-5.7724,-5.7785,-5.7793,-5.7816,-5.7889,-5.7921,-5.7897,-5.8037,-5.7992,-5.7999,-5.8003,-5.8043,-5.8059,-5.8072,-5.7892,-5.7891,-5.789,0,0,-5.7678,-5.7695,-5.7753,-5.7771,-5.7798,-5.7798,-5.7812,-5.7833,-5.7837,-5.7899,-5.7872,-5.7909,-5.7974,-5.7991,-5.8008,-5.8117,-5.8094,-5.8129,-5.8189,-5.8231,-5.8244,-5.8255,-5.8294,-5.8308,-5.8137,-5.8137,-5.8138,0,-5.7727,-5.7794,-5.7785,-5.7836,-5.7858,-5.7829,-5.7887,-5.7905,-5.794,-5.7956,-5.7929,-5.801,-5.8023,-5.81,-5.8127,-5.8142,-5.8157,-5.8126,-5.8243,-5.8255,-5.8265,-5.8302,-5.8316,-5.8141,-5.8141,-5.8141,-5.814,0,-5.7854,-5.7901,-5.7944,-5.7982,-5.8009,-5.8063,-5.8061,-5.8089,-5.8078,-5.8081,-5.8144,-5.8159,-5.8197,-5.8214,-5.8203,-5.8289,-5.8274,-5.8246,-5.8198,-5.8285,-5.8319,-5.8333,-5.8147,-5.8146,-5.8145,-5.8144,0,0,-5.7987,-5.8021,-5.8037,-5.8054,-5.8082,-5.8117,-5.817,-5.8209,-5.8233,-5.8259,-5.8302,-5.8358,-5.8333,-5.8352,-5.8343,-5.838,-5.8465,-5.8347,-5.8347,-5.8369,-5.8562,-5.8582,-5.8599,-5.8451,-5.8453,-5.8455,-5.856,0,-5.8089,-5.8183,-5.8177,-5.8265,-5.8308,-5.8281,-5.8327,-5.8348,-5.8352,-5.8388,-5.8392,-5.8432,-5.8395,-5.8407,-5.8443,-5.8448,-5.8504,-5.844,-5.8489,-5.8491,-5.8485,-5.8617,-5.8639,-5.8737,-5.8573,-5.8575,-5.8577,0,-5.822,-5.8253,-5.8346,-5.8369,-5.8386,-5.8428,-5.8463,-5.8498,-5.8521,-5.8522,-5.8545,-5.8529,-5.8581,-5.8533,-5.8604,-5.8561,-5.8581,-5.8586,-5.8589,-5.8593,-5.8539,-5.8624,-5.8768,-5.8782,-5.8598,-5.8596,-5.8595,0,-5.8309,-5.8376,-5.844,-5.8456,-5.8483,-5.8513,-5.8526,-5.8547,-5.8571,-5.8601,-5.8616,-5.8651,-5.867,-5.8697,-5.8691,-5.8657,-5.8764,-5.8715,-5.8765,-5.8765,-5.8788,-5.8786,-5.8937,-5.8802,-5.8801,-5.8801,-5.8801,0,-5.8423,-5.8481,-5.8481,-5.852,-5.8584,-5.8576,-5.8639,-5.8647,-5.8667,-5.8706,-5.8685,-5.8722,-5.8712,-5.8749,-5.8744,-5.8804,-5.8812,-5.8813,-5.8811,-5.8815,-5.8815,-5.8827,-5.882,-5.8805,-5.8804,-5.8803,-5.8803,0,-5.8532,-5.8535,-5.8603,-5.8625,-5.8631,-5.8677,-5.8695,-5.8731,-5.8734,-5.8785,-5.8796,-5.88,-5.8843,-5.884,-5.8886,-5.8883,-5.8957,-5.8947,-5.895,-5.8948,-5.8998,-5.8993,-5.9161,-5.9182,-5.9033,-5.9035,-5.9036,0,-5.8604,-5.8649,-5.8676,-5.8702,-5.8717,-5.8759,-5.8784,-5.8778,-5.8804,-5.8835,-5.8868,-5.8909,-5.8941,-5.9009,-5.9015,-5.9051,-5.9042,-5.9098,-5.9047,-5.905,-5.9042,-5.904,-5.9044,-5.9108,-5.911,-5.9111,-5.9112,0,-5.8733,-5.8733,-5.877,-5.881,-5.8841,-5.887,-5.8897,-5.8919,-5.8915,-5.8946,-5.899,-5.9016,-5.9065,-5.9105,-5.9139,-5.915,-5.9131,-5.9128,-5.9142,-5.9146,-5.9146,-5.9147,-5.8977,-5.9124,-5.9123,-5.9122,-5.9122,-5.9121,-5.8826,-5.8864,-5.889,-5.8933,-5.8953,-5.8979,-5.9015,-5.9024,-5.9061,-5.9102,-5.9095,-5.9145,-5.9167,-5.9211,-5.9226,-5.9263,-5.9243,-5.9262,-5.9267,-5.9272,-5.9278,-5.9141,-5.927,-5.9269,-5.9269,-5.9269,-5.9268,0,-5.8953,-5.8969,-5.9009,-5.9049,-5.9082,-5.9063,-5.9092,-5.9121,-5.9166,-5.9189,-5.9222,-5.9273,-5.9312,-5.9322,-5.9359,-5.9388,-5.9379,-5.9398,-5.9395,-5.9398,-5.9294,-5.9279,-5.9404,-5.9404,-5.9404,-5.9404,-5.9404,-5.9403,-5.9024,-5.9088,-5.9091,-5.9164,-5.9179,-5.9229,-5.9247,-5.9271,-5.929,-5.9348,-5.9382,-5.9388,-5.9406,-5.9445,-5.948,-5.9482,-5.9496,-5.9518,-5.9516,-5.9419,-5.9405,-5.9392,-5.9378,-5.9521,-5.9522,-5.9617,-5.9618,-5.9618]}]]